Flag for Canada Weather past 2 weeks in Surrey, British Columbia, Canada

Now
63 °F

Mild.


Feels Like: 63 °F
Forecast: 56 / 82 °F
Wind: No wind

Location: P. Meadows Coastal Station

Current Time: Jul 28, 2014 at 12:59:09 AM

Latest Report: Jul 28, 2014 at 12:00 AM


Visibility: N/A

Pressure: 30.09 "Hg

Humidity: 86%

Dew point: 58 °F

Location of SurreyLocation

Historic Weather in Surrey — Graph

°F

Surrey temperature yesterday

Maximum temperature yesterday: 83 °F (at 5:00 PM)
Minimum temperature yesterday: 53 °F (at 6:00 AM)
Average temperature yesterday: 69 °F

Past Weeks' High & Low Weather Summary

 TemperatureHumidityPressure
High92 °F (Jul 13, 5:00 PM)97% (Jul 27, 6:00 AM)30.21 "Hg (Jul 27, 6:00 AM)
Low52 °F (Jul 22, 5:00 AM)27% (Jul 13, 5:00 PM)29.89 "Hg (Jul 16, 9:00 PM)
Average66 °F70%30.04 "Hg
* Reported Midnight between Jul 12 and Jul 13 — Midnight between Jul 27 and Jul 28, Surrey, Weather by CustomWeather, © 2014

Note: Actual official high and low records may vary slightly from our data, if they occured in-between our weather recording intervals... More about our weather records

Advertising

Surrey weather history for previous 24 hours

 ConditionsComfort  
Time TempWeatherWind HumidityBarometerVisibility
12:00 AM
Jul 28
63 °FMild.No wind86%30.09 "HgN/A
11:00 PM
Jul 27
65 °FMild.No wind81%30.09 "HgN/A
10:00 PM67 °FMild.1 mph75%30.08 "HgN/A
9:00 PM73 °FMild.3 mph61%30.07 "HgN/A
8:00 PM80 °FPleasantly warm.3 mph38%30.06 "HgN/A
7:00 PM82 °FPleasantly warm.5 mph35%30.07 "HgN/A
6:00 PM83 °FPleasantly warm.7 mph35%30.08 "HgN/A
5:00 PM83 °FPleasantly warm.7 mph38%30.09 "HgN/A
4:00 PM82 °FPleasantly warm.7 mph40%30.11 "HgN/A
3:00 PM81 °FWarm.8 mph45%30.12 "HgN/A
2:00 PM81 °FWarm.7 mph47%30.14 "HgN/A
1:00 PM78 °FWarm.3 mph45%30.15 "HgN/A
12:00 PM76 °FMild.3 mph49%30.16 "HgN/A
11:00 AM72 °FMild.2 mph58%30.18 "HgN/A
10:00 AM69 °FMild.1 mph64%30.20 "HgN/A
9:00 AM66 °FMild.2 mph76%30.21 "HgN/A
8:00 AM63 °FMild.No wind80%30.20 "HgN/A
7:00 AM59 °FCool.No wind91%30.20 "HgN/A
6:00 AM53 °FCool.No wind97%30.19 "HgN/A
5:00 AM56 °FCool.1 mph95%30.18 "HgN/A
4:00 AM57 °FCool.2 mph94%30.17 "HgN/A
3:00 AM56 °FCool.No wind95%30.16 "HgN/A
2:00 AM58 °FCool.1 mph95%30.16 "HgN/A
1:00 AM58 °FCool.No wind89%30.16 "HgN/A
12:00 AM61 °FCool.No wind87%30.15 "HgN/A
Weather by CustomWeather, © 2014

See weather overviewHow to use our weather pages